[[{"header":{"parameterUnit":"m.s-1","parameterCategory":1,"la1":30.2991,"la2":30.254,"lo1":-89.0895,"lo2":-89.0444,"dy":0.0017,"dx":0.0017,"nx":28,"ny":28,"refTime":"2024-12-19T09:00:00:Z","depth":0,"parameterNumber":2,"parameterNumberName":"U-component_of_WINDS"},"data":[0,0,0,0,0,0,0,0,0,0,0,0,0,0,0,0,0,0,0,0,0,0,0,0,0,0,0,0,0,0,0,0,0,0,0,0,0,0,0,0,0,0,0,0,0,0,0,0,0,0,0,0,0,0,0,0,0,0,-1.4886,-1.4887,0,-1.4924,-1.4925,-1.4925,-1.4889,-1.4887,-1.4886,-1.4884,-1.4924,-1.4926,-1.4928,0,0,0,0,0,0,0,0,0,0,0,0,0,-1.4781,-1.4783,-1.4886,-1.4887,-1.4887,-1.4924,-1.4925,-1.4925,-1.4889,-1.4887,-1.4885,-1.4884,-1.4923,-1.4926,-1.4928,0,0,0,0,0,0,0,0,0,0,0,0,0,-1.4824,-1.4784,-1.4886,-1.4873,-1.4873,-1.4924,-1.4925,-1.4925,-1.4889,-1.4887,-1.4885,-1.4883,-1.4922,-1.4925,-1.4929,-1.4995,0,0,-1.494,-1.4941,0,0,0,0,0,0,0,0,-1.4822,-1.4828,-1.4875,-1.4874,-1.4874,-1.4899,-1.4902,-1.4949,-1.489,-1.4883,-1.4884,-1.4882,-1.4917,-1.4921,-1.4933,-1.4997,-1.4998,-1.494,-1.4942,-1.4944,-1.4945,0,0,0,0,0,0,0,-1.4819,-1.4826,-1.4901,-1.4876,-1.4875,-1.4866,-1.4869,-1.4911,-1.4912,-1.4883,-1.4881,-1.4886,-1.4917,-1.493,-1.4934,-1.4999,-1.494,-1.4943,-1.4946,-1.4947,-1.5118,-1.5121,0,0,0,0,0,0,-1.4817,-1.4824,-1.49,-1.4902,-1.4842,-1.4869,-1.4873,-1.4893,-1.4911,-1.4912,-1.4888,-1.4884,-1.4925,-1.493,-1.4935,-1.5014,-1.4944,-1.4947,-1.4949,-1.5116,-1.5119,-1.5121,0,0,0,0,0,0,-1.4815,-1.4824,-1.4899,-1.4862,-1.4871,-1.4873,-1.4896,-1.4895,-1.4908,-1.4915,-1.4915,-1.4901,-1.4923,-1.493,-1.498,-1.5014,-1.4949,-1.4952,-1.5113,-1.5117,-1.512,-1.5171,0,0,0,0,0,0,-1.4812,-1.4824,-1.4849,-1.4863,-1.4873,-1.4944,-1.4898,-1.4898,-1.4915,-1.491,-1.4927,-1.4928,-1.4922,-1.4975,-1.4984,-1.5018,-1.4955,-1.511,-1.5115,-1.5119,-1.5167,-1.5176,-1.5185,0,0,0,0,0,-1.4809,-1.4862,-1.4851,-1.486,-1.4905,-1.4946,-1.4951,-1.4943,-1.4918,-1.4943,-1.4947,-1.4927,-1.5009,-1.498,-1.499,-1.5026,-1.5108,-1.5113,-1.5119,-1.5163,-1.5175,-1.5184,0,0,0,0,0,0,-1.4852,-1.4864,-1.4851,-1.4911,-1.4928,-1.4939,-1.4971,-1.4956,-1.498,-1.4975,-1.4964,-1.4968,-1.5022,-1.5029,-1.4997,-1.5091,-1.5054,-1.5062,-1.5085,-1.5096,-1.5104,-1.5102,-1.4958,0,0,0,0,0,-1.4869,-1.4901,-1.4909,-1.4961,-1.497,-1.4969,-1.4987,-1.4979,-1.4996,-1.5003,-1.501,-1.5027,-1.5056,-1.5076,-1.5104,-1.5167,-1.517,-1.5196,-1.5205,-1.5213,-1.522,-1.5253,-1.5265,-1.5139,-1.5139,-1.5139,0,0,-1.4904,-1.4914,-1.4935,-1.497,-1.4982,-1.5016,-1.4976,-1.5013,-1.5037,-1.5008,-1.5056,-1.5062,-1.508,-1.5138,-1.5163,-1.5145,-1.5255,-1.5219,-1.5225,-1.5228,-1.526,-1.5272,-1.5283,-1.5143,-1.5142,-1.5141,0,0,-1.4984,-1.4995,-1.504,-1.5052,-1.5071,-1.507,-1.508,-1.5094,-1.5097,-1.5145,-1.5124,-1.5152,-1.5203,-1.5217,-1.5231,-1.5315,-1.5298,-1.5324,-1.5372,-1.5405,-1.5415,-1.5423,-1.5454,-1.5465,-1.5331,-1.5331,-1.5331,0,-1.5025,-1.5075,-1.5065,-1.5103,-1.5119,-1.5094,-1.5139,-1.5151,-1.5178,-1.519,-1.5169,-1.5232,-1.5242,-1.5302,-1.5323,-1.5334,-1.5346,-1.5323,-1.5414,-1.5423,-1.5431,-1.546,-1.5471,-1.5334,-1.5334,-1.5334,-1.5333,0,-1.5125,-1.5159,-1.5193,-1.5219,-1.5239,-1.528,-1.5276,-1.5297,-1.5287,-1.5288,-1.5337,-1.5348,-1.5377,-1.5391,-1.5382,-1.5449,-1.5438,-1.5416,-1.5379,-1.5446,-1.5473,-1.5484,-1.5339,-1.5338,-1.5337,-1.5336,0,0,-1.5236,-1.5254,-1.5267,-1.5278,-1.5296,-1.5323,-1.5363,-1.5391,-1.5409,-1.5428,-1.5461,-1.5504,-1.5484,-1.55,-1.5491,-1.552,-1.5587,-1.5495,-1.5495,-1.5512,-1.5662,-1.5679,-1.5692,-1.5575,-1.5577,-1.5579,-1.5661,0,-1.5317,-1.5387,-1.5378,-1.5445,-1.5477,-1.5453,-1.5487,-1.5502,-1.5504,-1.553,-1.5532,-1.5563,-1.5533,-1.5542,-1.557,-1.5573,-1.5617,-1.5567,-1.5606,-1.5608,-1.5603,-1.5706,-1.5725,-1.5802,-1.5671,-1.5673,-1.5674,0,-1.5422,-1.5444,-1.5515,-1.5527,-1.554,-1.5572,-1.5596,-1.5622,-1.5638,-1.5637,-1.5654,-1.564,-1.568,-1.5642,-1.5696,-1.5662,-1.5677,-1.5681,-1.5684,-1.5688,-1.5646,-1.5714,-1.5826,-1.5838,-1.569,-1.5689,-1.5688,0,-1.5497,-1.5544,-1.5592,-1.5602,-1.5618,-1.5641,-1.5648,-1.5662,-1.5679,-1.57,-1.5712,-1.5737,-1.5752,-1.5772,-1.5765,-1.5738,-1.5821,-1.5782,-1.5822,-1.5822,-1.5842,-1.5841,-1.5958,-1.585,-1.585,-1.585,-1.5849,0,-1.5589,-1.5634,-1.5626,-1.5656,-1.5704,-1.5693,-1.5741,-1.5745,-1.5757,-1.5787,-1.5767,-1.5795,-1.5785,-1.5812,-1.5807,-1.5853,-1.586,-1.586,-1.5858,-1.5862,-1.5863,-1.5873,-1.5868,-1.5853,-1.5852,-1.5851,-1.5851,0,-1.5682,-1.5678,-1.5729,-1.5739,-1.5743,-1.5778,-1.5787,-1.5814,-1.5813,-1.5852,-1.586,-1.5859,-1.589,-1.5885,-1.592,-1.5917,-1.5974,-1.5966,-1.5969,-1.5968,-1.6007,-1.6004,-1.6137,-1.6154,-1.6034,-1.6035,-1.6036,0,-1.5742,-1.5775,-1.5788,-1.5807,-1.5816,-1.5846,-1.5864,-1.5853,-1.5872,-1.5892,-1.5917,-1.5947,-1.597,-1.6021,-1.6023,-1.605,-1.6042,-1.6087,-1.6046,-1.6049,-1.6043,-1.6042,-1.6045,-1.6095,-1.6096,-1.6098,-1.6098,0,-1.5849,-1.5845,-1.5871,-1.5897,-1.5918,-1.5937,-1.5955,-1.5971,-1.5962,-1.5984,-1.6016,-1.6034,-1.6069,-1.6098,-1.6123,-1.613,-1.6113,-1.6111,-1.6122,-1.6127,-1.6128,-1.6128,-1.5992,-1.6108,-1.6107,-1.6107,-1.6106,-1.6106,-1.5927,-1.5955,-1.5969,-1.5999,-1.601,-1.6027,-1.6053,-1.6056,-1.6082,-1.611,-1.6102,-1.6138,-1.6152,-1.6183,-1.6192,-1.622,-1.6204,-1.6219,-1.6223,-1.6227,-1.6232,-1.6122,-1.6224,-1.6224,-1.6224,-1.6224,-1.6223,0,-1.6033,-1.6041,-1.6068,-1.6093,-1.6116,-1.6097,-1.6115,-1.6136,-1.6168,-1.6182,-1.6205,-1.6241,-1.6269,-1.6273,-1.6299,-1.6321,-1.6314,-1.6328,-1.6327,-1.6329,-1.6245,-1.6234,-1.6333,-1.6333,-1.6333,-1.6333,-1.6333,-1.6333,-1.6092,-1.6139,-1.6136,-1.6189,-1.6195,-1.6231,-1.6243,-1.6258,-1.6269,-1.631,-1.6333,-1.6335,-1.6345,-1.6372,-1.6397,-1.6397,-1.6408,-1.6426,-1.6424,-1.6346,-1.6335,-1.6324,-1.6313,-1.6428,-1.6429,-1.6505,-1.6506,-1.6506]},{"header":{"parameterUnit":"m.s-1","parameterCategory":1,"la1":30.2991,"la2":30.254,"lo1":-89.0895,"lo2":-89.0444,"dy":0.0017,"dx":0.0017,"nx":28,"ny":28,"refTime":"2024-12-19T09:00:00:Z","depth":0,"parameterNumber":3,"parameterNumberName":"V-component_of_WINDS"},"data":[0,0,0,0,0,0,0,0,0,0,0,0,0,0,0,0,0,0,0,0,0,0,0,0,0,0,0,0,0,0,0,0,0,0,0,0,0,0,0,0,0,0,0,0,0,0,0,0,0,0,0,0,0,0,0,0,0,0,-5.472,-5.4721,0,-5.4857,-5.4859,-5.486,-5.484,-5.4838,-5.4835,-5.4833,-5.4968,-5.4974,-5.4979,0,0,0,0,0,0,0,0,0,0,0,0,0,-5.4435,-5.444,-5.472,-5.4721,-5.4723,-5.4857,-5.4859,-5.4861,-5.484,-5.4837,-5.4835,-5.4832,-5.4966,-5.4973,-5.498,0,0,0,0,0,0,0,0,0,0,0,0,0,-5.4564,-5.4442,-5.4719,-5.4729,-5.4731,-5.4857,-5.4859,-5.4861,-5.4841,-5.4837,-5.4834,-5.4831,-5.4964,-5.4972,-5.4981,-5.5103,0,0,-5.5007,-5.5011,0,0,0,0,0,0,0,0,-5.4557,-5.4574,-5.4726,-5.4729,-5.4732,-5.4828,-5.4808,-5.4942,-5.4842,-5.4799,-5.4833,-5.4829,-5.4924,-5.4936,-5.4969,-5.5109,-5.5115,-5.5008,-5.5013,-5.5017,-5.5019,0,0,0,0,0,0,0,-5.4548,-5.4568,-5.4774,-5.4728,-5.4732,-5.4725,-5.474,-5.4833,-5.4879,-5.4803,-5.4801,-5.4818,-5.4925,-5.4961,-5.4972,-5.5117,-5.5008,-5.5015,-5.5021,-5.5024,-5.5366,-5.5369,0,0,0,0,0,0,-5.4537,-5.4561,-5.4769,-5.4778,-5.4634,-5.4733,-5.4749,-5.48,-5.4878,-5.4887,-5.4821,-5.4817,-5.4948,-5.4962,-5.4976,-5.5126,-5.5017,-5.5025,-5.503,-5.5362,-5.5367,-5.5371,0,0,0,0,0,0,-5.4531,-5.4556,-5.4764,-5.4669,-5.4695,-5.4742,-5.4799,-5.4805,-5.4841,-5.4892,-5.49,-5.485,-5.4945,-5.4964,-5.5072,-5.513,-5.5029,-5.5037,-5.5357,-5.5363,-5.5369,-5.5425,0,0,0,0,0,0,-5.4523,-5.4554,-5.4602,-5.4671,-5.4701,-5.4859,-5.4803,-5.481,-5.4856,-5.4852,-5.4921,-5.4929,-5.4944,-5.506,-5.5081,-5.514,-5.5043,-5.5352,-5.536,-5.5367,-5.5418,-5.5432,-5.5443,0,0,0,0,0,-5.4513,-5.461,-5.4604,-5.4629,-5.4762,-5.4863,-5.488,-5.4897,-5.4861,-5.4909,-5.4942,-5.4927,-5.512,-5.5071,-5.5095,-5.5157,-5.5349,-5.5358,-5.5366,-5.5412,-5.5429,-5.5443,0,0,0,0,0,0,-5.4545,-5.462,-5.4613,-5.4737,-5.4794,-5.4859,-5.492,-5.4914,-5.4981,-5.4974,-5.499,-5.5006,-5.5116,-5.5147,-5.5091,-5.528,-5.5229,-5.5243,-5.5256,-5.5272,-5.5285,-5.5275,-5.505,0,0,0,0,0,-5.4566,-5.4644,-5.4704,-5.4807,-5.4836,-5.4874,-5.4918,-5.4927,-5.4985,-5.5009,-5.5049,-5.5106,-5.5179,-5.5227,-5.5298,-5.5422,-5.5437,-5.5476,-5.5489,-5.55,-5.5512,-5.558,-5.5599,-5.54,-5.54,-5.5399,0,0,-5.4611,-5.4662,-5.4709,-5.4815,-5.486,-5.4939,-5.4894,-5.4978,-5.5036,-5.5021,-5.5127,-5.5158,-5.5222,-5.5339,-5.5393,-5.5369,-5.557,-5.5511,-5.5519,-5.5525,-5.5591,-5.561,-5.5627,-5.5406,-5.5405,-5.5404,0,0,-5.4734,-5.478,-5.4872,-5.4918,-5.4988,-5.5012,-5.5034,-5.5101,-5.5123,-5.5229,-5.522,-5.5288,-5.5414,-5.546,-5.55,-5.5642,-5.563,-5.5664,-5.5731,-5.5798,-5.5813,-5.5827,-5.5879,-5.5897,-5.5675,-5.5675,-5.5675,0,-5.4781,-5.4901,-5.4919,-5.5006,-5.5052,-5.5044,-5.5136,-5.518,-5.5268,-5.53,-5.5272,-5.5432,-5.5473,-5.5602,-5.5637,-5.5669,-5.5694,-5.5656,-5.581,-5.5824,-5.5838,-5.5886,-5.5906,-5.5679,-5.5679,-5.5678,-5.5678,0,-5.4955,-5.5038,-5.5103,-5.5192,-5.5246,-5.5334,-5.5365,-5.5417,-5.5421,-5.5448,-5.5556,-5.5607,-5.5688,-5.5718,-5.5722,-5.5848,-5.5831,-5.5806,-5.5756,-5.586,-5.5906,-5.5925,-5.5685,-5.5683,-5.5682,-5.5681,0,0,-5.5102,-5.52,-5.5224,-5.5265,-5.5341,-5.5405,-5.5493,-5.5575,-5.5619,-5.568,-5.5754,-5.5862,-5.584,-5.5886,-5.5894,-5.5953,-5.6063,-5.5921,-5.5923,-5.5947,-5.6205,-5.6224,-5.6245,-5.6055,-5.6059,-5.6062,-5.62,0,-5.5233,-5.5391,-5.5411,-5.5551,-5.5628,-5.5621,-5.5698,-5.5753,-5.578,-5.5848,-5.5877,-5.5954,-5.5919,-5.5947,-5.6004,-5.6037,-5.6115,-5.6027,-5.6124,-5.6127,-5.6109,-5.6269,-5.6289,-5.6417,-5.6218,-5.6221,-5.6223,0,-5.5407,-5.5476,-5.5624,-5.5692,-5.5725,-5.5794,-5.5871,-5.5936,-5.5998,-5.6013,-5.6065,-5.6066,-5.6156,-5.6102,-5.6225,-5.6166,-5.6206,-5.6228,-5.6233,-5.6243,-5.6182,-5.6284,-5.6458,-5.6478,-5.6252,-5.6249,-5.6247,0,-5.55,-5.563,-5.5736,-5.5771,-5.5852,-5.59,-5.5936,-5.5994,-5.6042,-5.6108,-5.614,-5.6215,-5.6256,-5.6313,-5.6334,-5.6292,-5.6457,-5.6404,-5.6472,-5.6472,-5.6507,-5.6505,-5.6691,-5.6532,-5.6532,-5.6531,-5.6531,0,-5.5645,-5.5736,-5.5779,-5.5845,-5.5947,-5.5967,-5.6067,-5.61,-5.6153,-5.6223,-5.6221,-5.6287,-5.631,-5.638,-5.6396,-5.6497,-5.6514,-5.6529,-5.6533,-5.653,-5.6529,-5.6557,-5.6549,-5.6536,-5.6535,-5.6534,-5.6533,0,-5.5767,-5.5799,-5.5915,-5.5983,-5.6002,-5.6075,-5.6132,-5.6194,-5.6221,-5.6311,-5.6333,-5.6374,-5.6456,-5.6483,-5.658,-5.6592,-5.6709,-5.6704,-5.6689,-5.669,-5.6757,-5.6751,-5.6968,-5.6998,-5.6819,-5.682,-5.6822,0,-5.5858,-5.5929,-5.6005,-5.6053,-5.6092,-5.6169,-5.6219,-5.6241,-5.6293,-5.6369,-5.6422,-5.6504,-5.6571,-5.6701,-5.6739,-5.6814,-5.6811,-5.6882,-5.6822,-5.6818,-5.6813,-5.6809,-5.6817,-5.6894,-5.6896,-5.6897,-5.6898,0,-5.6016,-5.6029,-5.6102,-5.6181,-5.6242,-5.6304,-5.6365,-5.6404,-5.6435,-5.6493,-5.6578,-5.663,-5.6731,-5.6812,-5.6889,-5.6923,-5.6916,-5.6917,-5.6937,-5.6936,-5.6925,-5.6932,-5.6721,-5.6912,-5.6911,-5.691,-5.6909,-5.6908,-5.6126,-5.6189,-5.6253,-5.6335,-5.6383,-5.644,-5.6503,-5.6539,-5.6611,-5.6697,-5.6705,-5.6796,-5.6856,-5.6959,-5.6997,-5.7068,-5.7048,-5.7076,-5.7083,-5.709,-5.7096,-5.6913,-5.7082,-5.7081,-5.7081,-5.7081,-5.708,0,-5.6285,-5.6326,-5.6401,-5.6487,-5.6552,-5.6541,-5.6608,-5.6662,-5.6743,-5.68,-5.6867,-5.6964,-5.7043,-5.7088,-5.7166,-5.7214,-5.7213,-5.7234,-5.7231,-5.7239,-5.711,-5.7085,-5.7234,-5.7234,-5.7234,-5.7234,-5.7234,-5.7234,-5.6375,-5.6482,-5.6503,-5.6633,-5.6673,-5.6765,-5.6804,-5.6856,-5.6902,-5.7012,-5.7079,-5.7108,-5.716,-5.7242,-5.7313,-5.7324,-5.7353,-5.7377,-5.7386,-5.7264,-5.7248,-5.7233,-5.721,-5.7383,-5.7383,-5.7509,-5.7511,-5.7511]}]]